Vorticity
11 10 9 9 10 11 13 14 16 17 18 19 19 19 18 18 17 15 13 11 10 8 7 6 4 4 4 6 11 17 23 31 38 44 48 51 52 52 52 52 51 50 49 48 47 46 45 45 43 42 39 35 30 25 20 16 14 13 11 11 11 11 11 10 9 10 10 11 11
10 9 8 8 10 12 13 15 17 18 19 19 19 18 17 16 15 13 11 9 8 6 5 4 4 5 7 12 19 28 36 44 48 50 50 50 50 50 50 50 50 50 49 48 47 46 45 45 45 44 43 41 37 32 27 21 18 15 13 12 12 12 11 9 9 9 10 10 11
9 8 8 9 10 12 14 16 17 18 19 19 18 17 16 15 12 10 9 7 6 5 4 3 4 8 13 20 30 38 45 48 48 46 45 44 44 45 46 48 49 49 49 48 46 44 43 42 43 43 44 43 41 37 33 28 22 18 15 14 13 13 11 10 9 9 9 10 11
9 8 8 9 11 13 15 16 17 18 18 18 17 16 15 13 11 9 8 7 6 5 4 3 6 12 20 30 39 44 46 44 41 39 38 38 39 41 43 45 47 49 49 48 46 43 41 40 40 41 42 43 42 40 36 32 27 22 18 15 15 14 12 10 9 8 9 9 10
9 8 8 10 12 14 15 17 18 18 18 18 16 15 13 11 9 8 7 6 5 4 4 5 10 19 28 38 43 43 41 36 33 32 33 35 37 38 40 42 44 46 48 48 46 43 41 38 38 38 40 42 42 40 38 35 30 26 21 18 17 15 13 11 9 8 8 9 10
8 8 9 11 13 14 16 17 18 18 17 17 15 14 12 10 9 8 7 6 5 4 5 8 16 25 35 42 42 39 34 29 28 29 31 34 36 37 38 39 41 43 45 47 46 44 41 38 37 37 38 40 40 40 39 36 33 28 24 21 19 17 15 12 10 9 8 8 9
8 8 9 11 13 15 16 17 18 18 17 16 14 13 11 10 8 7 6 5 4 4 6 11 21 31 39 42 39 34 28 25 25 28 32 36 38 38 38 38 39 41 43 45 45 44 41 38 37 36 37 38 39 39 38 37 34 30 26 23 21 18 16 13 11 9 8 8 9
8 8 10 11 13 15 16 17 17 17 17 16 14 12 10 9 8 7 6 5 4 5 8 15 27 36 41 41 35 29 25 23 26 32 38 43 43 42 42 42 43 43 44 44 44 42 41 39 37 36 37 37 38 38 37 36 34 31 28 25 22 19 17 14 12 10 9 8 9
8 9 10 12 14 15 16 17 17 17 16 15 13 12 10 9 8 7 6 5 4 6 10 20 31 39 42 39 32 26 24 24 31 39 47 49 48 47 47 47 47 48 48 47 45 44 42 40 38 37 37 37 37 37 36 35 34 31 29 25 22 20 18 15 13 11 9 9 8
8 9 10 12 14 16 17 17 17 17 16 14 13 11 9 8 7 7 6 4 4 7 13 24 34 40 41 37 29 26 25 28 40 48 52 50 47 44 42 42 44 45 47 48 47 46 44 42 39 38 37 36 35 35 34 33 32 30 28 26 23 21 18 16 14 12 11 9 9
8 8 10 12 14 16 17 17 17 16 15 14 12 10 9 8 7 6 5 4 4 8 15 27 36 41 40 34 28 26 29 35 48 50 46 39 33 28 26 26 28 30 33 36 39 41 41 40 38 36 34 33 32 32 32 32 31 30 28 26 24 21 19 17 15 13 12 11 10
8 8 10 12 14 16 17 17 17 16 15 13 12 10 9 8 7 6 5 4 5 9 18 29 38 41 39 32 28 29 34 43 47 41 30 21 15 11 9 9 11 13 15 18 21 25 27 30 31 32 32 31 31 31 32 33 32 30 28 26 24 22 20 18 17 15 13 12 11
7 8 10 13 15 16 17 17 17 16 14 13 11 10 8 8 7 6 5 4 5 10 19 31 39 41 38 31 29 31 38 47 36 26 16 8 4 2 2 3 4 5 6 7 9 10 12 14 21 27 32 34 34 34 33 33 31 29 27 25 23 22 20 19 17 16 15 14 12
8 9 10 13 15 16 17 17 17 16 14 12 11 9 8 7 7 6 6 4 6 11 21 32 39 41 38 31 29 33 39 42 25 16 10 2 -1 -1 0 2 3 4 4 4 5 5 5 6 14 25 34 38 36 35 33 32 30 28 26 24 23 22 20 19 18 17 16 15 14
8 9 11 13 15 16 17 17 16 15 14 12 10 9 8 8 7 7 6 5 6 12 21 33 39 41 38 31 31 34 36 35 22 15 9 -0 -2 -2 1 3 4 4 4 4 5 5 5 6 14 25 35 41 39 36 33 31 29 27 25 23 22 21 21 19 18 17 16 16 15
8 9 11 13 15 16 16 17 16 15 13 11 10 9 8 8 7 7 6 5 7 13 22 33 39 40 38 33 32 33 33 29 21 17 13 2 -2 -2 0 3 3 3 4 4 4 5 7 9 16 24 33 39 39 37 34 31 29 28 26 24 23 22 21 20 19 18 17 16 15
8 9 11 13 15 15 16 16 16 15 13 11 10 9 8 8 7 7 6 6 7 13 22 33 38 40 38 34 32 31 28 21 18 18 16 7 0 -2 -1 0 2 3 4 4 4 5 8 12 17 22 27 32 36 37 35 32 30 28 26 25 23 22 21 20 19 19 18 17 15
8 9 11 13 14 15 16 16 16 15 13 11 10 9 8 8 8 7 7 6 7 13 21 32 38 40 39 35 32 29 23 15 13 14 13 8 1 -2 -2 -1 2 4 6 6 5 6 8 13 17 19 22 25 30 33 35 33 30 28 26 25 24 22 21 21 20 19 18 17 16
8 9 11 13 14 15 15 16 16 15 13 11 10 9 8 8 8 7 7 6 8 13 20 30 37 41 41 37 32 26 20 12 7 6 6 4 -0 -2 -3 -2 0 4 8 11 9 8 9 13 16 16 16 19 24 28 31 33 31 28 26 25 24 23 22 22 21 20 19 18 17
8 9 11 12 14 14 15 15 15 15 13 11 10 9 8 8 8 8 7 7 7 12 19 29 36 40 41 39 32 26 19 13 7 2 -1 -1 -1 -0 -0 -1 -0 2 7 12 13 11 10 13 14 12 12 14 18 23 27 29 29 27 25 24 24 23 23 23 23 22 20 19 18
8 9 10 12 13 14 15 15 15 14 13 12 10 9 8 8 8 8 8 7 7 11 17 27 35 39 41 39 34 27 21 16 10 5 -0 -2 1 5 6 4 1 0 3 8 13 15 14 14 12 9 8 9 13 17 21 25 26 25 24 23 23 23 23 24 24 23 22 21 20
8 9 10 12 13 14 14 14 15 14 13 12 10 9 8 8 8 8 8 7 7 10 16 25 33 39 41 40 35 29 23 18 15 11 7 3 5 9 13 13 5 0 -2 1 9 14 17 15 12 7 5 6 8 11 15 20 23 24 24 23 22 21 21 21 21 22 22 23 22
8 9 10 11 13 13 14 14 14 14 13 12 11 9 8 8 8 8 8 7 7 9 14 21 31 37 41 41 37 31 26 21 18 15 12 9 9 11 16 21 14 5 -3 -5 2 10 16 15 11 6 3 4 5 6 9 14 19 23 24 22 20 18 17 16 16 16 18 21 21
8 9 10 11 12 13 13 14 14 14 13 12 11 10 9 8 8 8 8 8 7 8 11 17 27 35 40 42 39 35 29 24 20 17 14 12 11 11 13 19 23 17 6 -5 -3 5 13 15 10 5 2 3 4 4 5 8 12 15 19 20 18 16 14 12 11 10 11 15 17
8 8 9 11 12 13 13 13 14 14 13 13 11 10 9 8 8 8 8 8 8 8 10 14 22 31 38 43 42 38 33 27 23 19 16 13 12 11 10 10 24 30 24 2 -2 1 8 11 8 4 2 3 4 4 3 4 5 7 10 13 15 15 14 12 10 8 9 11 14
8 8 9 11 11 12 13 13 13 13 13 12 11 10 9 8 8 8 8 8 8 7 8 11 17 26 34 42 43 41 37 31 26 22 19 15 12 10 8 4 17 36 40 12 1 -1 2 5 6 5 2 2 5 6 5 4 5 6 6 7 9 12 13 12 11 11 11 12 13
8 8 9 10 11 12 13 13 13 13 13 12 12 11 9 8 8 8 8 8 7 7 7 9 13 20 29 38 43 44 41 35 29 26 22 18 14 10 7 3 7 28 43 27 7 -1 -1 1 5 6 5 3 5 7 7 6 8 9 10 9 7 8 10 11 12 12 12 13 13
8 8 8 9 11 12 12 13 13 13 13 12 12 11 10 9 8 8 8 8 7 7 7 8 10 15 23 33 41 44 44 40 34 29 25 23 18 13 8 4 0 13 30 42 19 5 -0 -1 3 6 7 5 6 6 7 7 8 10 10 9 7 7 7 8 10 11 11 13 13
8 7 8 9 10 11 12 13 13 13 13 12 12 11 10 9 8 8 8 7 7 7 7 7 8 11 17 26 35 42 45 44 39 33 28 26 23 19 13 7 -0 -0 12 40 30 17 5 0 1 4 6 7 5 5 6 7 9 10 10 9 7 5 5 6 7 8 9 10 11
8 8 8 8 9 11 12 13 13 13 13 12 12 11 10 9 9 8 8 8 8 8 7 6 7 9 13 19 28 36 43 46 43 38 33 29 27 25 21 14 6 -3 -1 25 32 26 15 5 2 2 3 5 5 5 5 5 8 10 12 11 8 6 4 4 5 6 7 8 9
8 8 8 8 9 10 12 13 13 13 13 13 12 11 10 9 9 8 8 9 8 7 7 7 7 8 10 14 21 30 38 44 44 42 38 33 30 28 27 24 16 -1 -7 13 27 29 22 12 7 5 5 8 8 7 5 3 4 7 10 12 11 9 6 4 4 4 5 6 8
8 8 8 8 9 10 11 12 13 13 14 13 12 11 10 10 9 8 9 9 9 8 8 8 7 7 8 10 16 23 31 39 43 43 41 37 33 30 29 30 27 7 -6 8 24 28 25 16 10 7 7 12 16 15 11 6 2 2 5 9 11 11 11 9 8 7 7 7 9
8 8 8 8 9 9 10 11 12 13 14 14 13 12 11 10 9 9 8 9 9 9 8 8 7 7 7 8 11 17 24 33 39 42 43 40 36 32 30 32 34 19 3 4 22 28 26 17 10 5 4 7 14 19 19 14 8 4 2 4 7 9 11 11 11 11 11 11 12
9 8 8 8 8 9 10 11 12 13 14 14 13 12 11 10 9 9 9 9 9 10 9 8 7 7 6 7 8 12 18 25 33 39 42 42 38 34 31 31 34 28 17 6 22 29 29 20 12 5 0 -3 4 12 18 21 17 12 8 5 6 8 10 11 12 12 12 12 13
9 9 8 8 8 9 9 10 11 12 13 14 14 13 12 11 10 9 9 9 10 10 10 9 8 7 6 6 7 9 13 18 26 33 39 42 40 37 33 31 31 31 27 15 20 27 31 26 18 10 4 -3 -4 1 9 17 21 21 19 15 12 11 12 13 14 14 13 12 12
10 9 8 8 8 9 9 9 10 11 13 14 14 13 12 11 10 10 9 9 10 10 10 10 9 8 7 7 7 8 10 13 19 26 33 39 41 40 37 32 31 31 30 26 24 26 29 30 26 19 12 5 -1 -2 1 7 14 19 22 22 20 17 15 15 15 16 15 14 13
10 10 9 8 8 9 9 9 9 11 12 13 14 14 13 12 10 10 9 9 10 10 11 11 10 9 8 7 7 7 8 10 14 20 26 33 38 40 39 36 33 31 29 27 25 26 27 29 29 26 21 16 9 4 2 2 5 9 13 17 18 18 17 16 15 16 16 17 16
11 10 9 9 8 8 9 9 9 10 11 12 14 14 13 12 11 10 9 9 10 10 11 11 11 10 9 7 7 7 7 9 12 15 20 26 32 37 39 38 35 33 30 27 26 26 28 28 28 26 24 22 19 14 10 7 6 5 6 8 11 12 14 15 15 16 17 18 18
11 10 10 9 9 8 8 9 9 9 10 11 13 14 14 13 12 11 10 9 10 10 11 11 11 10 9 8 7 7 7 8 10 13 16 20 26 31 36 39 37 35 32 29 27 27 28 28 27 25 23 22 22 20 17 15 12 10 9 9 9 10 11 12 14 16 17 17 18
11 10 10 9 9 9 9 9 9 9 9 11 12 13 14 14 13 11 10 9 10 10 10 11 11 11 10 9 8 7 6 7 9 11 13 16 20 25 30 35 37 36 34 32 29 28 27 27 27 26 24 22 22 22 22 20 19 17 16 15 15 14 14 14 15 16 17 17 18
11 10 10 9 9 9 9 9 8 8 9 10 12 13 14 14 13 12 11 10 10 10 10 11 11 11 11 10 9 7 6 6 8 10 11 13 16 19 24 29 33 35 35 34 32 30 28 27 26 26 25 23 23 23 24 24 23 22 22 21 21 21 20 20 20 18 18 17 18
Height
5519 5514 5509 5504 5499 5494 5489 5483 5478 5472 5467 5462 5457 5452 5447 5443 5439 5435 5430 5426 5422 5417 5413 5408 5402 5397 5391 5384 5377 5370 5363 5355 5349 5342 5335 5329 5324 5319 5314 5310 5307 5304 5302 5301 5300 5300 5301 5302 5304 5306 5309 5312 5315 5318 5321 5324 5328 5332 5336 5340 5343 5346 5348 5349 5350 5352 5353 5355 5357
5516 5511 5507 5502 5497 5491 5486 5480 5474 5469 5463 5458 5454 5449 5444 5440 5436 5431 5427 5422 5417 5413 5407 5402 5396 5390 5383 5375 5368 5360 5352 5345 5338 5332 5326 5320 5315 5309 5305 5301 5297 5295 5292 5291 5291 5291 5291 5293 5295 5297 5300 5302 5306 5309 5313 5316 5320 5325 5330 5334 5337 5340 5343 5344 5346 5347 5349 5351 5353
5515 5510 5505 5500 5494 5488 5483 5477 5471 5466 5460 5455 5450 5446 5441 5437 5432 5428 5424 5419 5413 5408 5402 5396 5390 5382 5375 5367 5359 5351 5343 5336 5330 5324 5318 5313 5307 5302 5297 5293 5290 5287 5285 5283 5283 5283 5284 5285 5287 5289 5292 5295 5298 5301 5305 5309 5314 5319 5324 5328 5332 5335 5338 5340 5341 5343 5345 5347 5349
5513 5508 5503 5497 5492 5486 5480 5474 5469 5463 5458 5453 5448 5443 5439 5434 5430 5425 5420 5415 5410 5404 5397 5390 5383 5375 5367 5359 5351 5343 5336 5330 5324 5318 5313 5307 5302 5297 5292 5287 5284 5281 5279 5277 5277 5277 5278 5279 5281 5283 5285 5288 5291 5295 5298 5303 5308 5313 5318 5322 5326 5330 5333 5335 5336 5339 5341 5343 5345
5511 5506 5501 5495 5490 5484 5478 5472 5466 5461 5456 5451 5446 5441 5436 5432 5427 5422 5417 5411 5405 5400 5393 5385 5378 5370 5361 5353 5345 5338 5331 5325 5319 5313 5308 5302 5297 5292 5287 5283 5280 5277 5274 5273 5272 5272 5273 5275 5276 5278 5280 5283 5286 5289 5293 5297 5302 5307 5313 5317 5322 5325 5328 5330 5332 5335 5338 5340 5341
5510 5504 5499 5493 5487 5481 5475 5470 5465 5460 5454 5449 5444 5439 5434 5430 5425 5419 5414 5408 5402 5396 5389 5381 5373 5364 5356 5348 5340 5334 5327 5321 5315 5309 5304 5298 5293 5288 5284 5280 5277 5274 5272 5270 5269 5269 5270 5271 5273 5275 5277 5279 5282 5285 5289 5293 5298 5303 5308 5313 5317 5320 5323 5326 5329 5331 5334 5336 5338
5508 5502 5497 5491 5485 5479 5474 5468 5463 5458 5453 5448 5443 5438 5433 5428 5422 5417 5411 5405 5399 5393 5385 5377 5369 5360 5351 5344 5337 5330 5324 5318 5312 5307 5301 5296 5291 5286 5283 5279 5275 5273 5270 5269 5268 5268 5268 5269 5271 5272 5275 5277 5280 5282 5286 5290 5294 5299 5304 5309 5313 5316 5319 5322 5325 5328 5331 5333 5335
5506 5500 5495 5489 5484 5478 5473 5467 5462 5457 5452 5447 5442 5436 5431 5426 5420 5415 5409 5403 5396 5390 5382 5374 5365 5356 5348 5341 5335 5328 5322 5316 5310 5305 5300 5295 5290 5286 5282 5279 5276 5273 5270 5269 5268 5268 5268 5268 5270 5271 5273 5275 5278 5280 5284 5287 5291 5296 5301 5305 5309 5312 5315 5319 5322 5325 5327 5329 5332
5504 5499 5493 5488 5483 5477 5472 5466 5461 5456 5451 5445 5440 5435 5430 5424 5418 5413 5407 5400 5394 5387 5379 5370 5362 5353 5346 5339 5333 5327 5321 5315 5310 5305 5300 5295 5291 5287 5284 5280 5277 5274 5272 5270 5269 5268 5268 5269 5270 5271 5273 5275 5277 5280 5282 5285 5290 5294 5298 5302 5306 5309 5313 5316 5319 5322 5324 5326 5329
5503 5498 5492 5487 5482 5476 5471 5465 5460 5455 5450 5444 5439 5433 5428 5422 5417 5411 5405 5399 5392 5384 5376 5367 5359 5351 5344 5338 5332 5326 5320 5315 5310 5305 5301 5297 5293 5290 5286 5283 5280 5277 5275 5273 5271 5270 5270 5270 5271 5272 5273 5275 5277 5279 5281 5285 5288 5292 5296 5300 5304 5307 5310 5314 5317 5319 5322 5324 5327
5502 5497 5492 5486 5481 5475 5470 5465 5459 5454 5448 5443 5437 5432 5426 5421 5415 5409 5403 5397 5390 5382 5374 5365 5357 5350 5343 5337 5331 5325 5320 5315 5311 5307 5304 5300 5296 5293 5290 5287 5284 5281 5279 5277 5275 5274 5273 5273 5274 5274 5275 5276 5278 5280 5282 5285 5288 5292 5295 5299 5302 5305 5308 5312 5315 5317 5320 5322 5325
5501 5495 5490 5485 5480 5474 5469 5464 5458 5453 5447 5442 5436 5431 5425 5420 5414 5408 5402 5395 5388 5380 5372 5363 5355 5348 5342 5336 5331 5325 5321 5316 5313 5310 5306 5303 5300 5296 5293 5291 5288 5286 5284 5282 5280 5279 5278 5278 5278 5278 5278 5279 5280 5281 5284 5286 5289 5292 5295 5297 5300 5303 5307 5310 5313 5315 5318 5320 5322
5500 5495 5489 5484 5479 5473 5468 5462 5457 5451 5446 5440 5435 5430 5424 5418 5413 5406 5400 5394 5386 5379 5370 5362 5354 5347 5341 5336 5330 5326 5322 5318 5315 5311 5308 5305 5303 5300 5297 5295 5293 5291 5289 5287 5286 5285 5284 5283 5282 5281 5281 5282 5282 5284 5285 5287 5289 5291 5294 5296 5299 5302 5305 5308 5311 5313 5315 5318 5320
5499 5494 5488 5483 5477 5472 5467 5461 5456 5450 5445 5440 5434 5429 5423 5417 5411 5405 5399 5392 5385 5377 5369 5360 5353 5346 5341 5335 5331 5326 5323 5320 5317 5314 5310 5308 5305 5303 5301 5299 5297 5295 5293 5292 5291 5290 5289 5287 5286 5285 5285 5285 5285 5285 5286 5287 5289 5291 5293 5295 5298 5301 5304 5306 5309 5311 5313 5315 5317
5498 5492 5487 5482 5476 5471 5466 5460 5455 5450 5444 5439 5433 5428 5422 5416 5410 5404 5398 5391 5384 5376 5368 5360 5353 5346 5341 5336 5331 5328 5325 5322 5319 5315 5312 5310 5308 5306 5304 5303 5301 5299 5297 5296 5295 5293 5292 5291 5289 5288 5287 5287 5287 5287 5287 5288 5290 5291 5293 5295 5298 5300 5303 5305 5307 5309 5311 5313 5315
5496 5491 5486 5480 5475 5470 5465 5459 5454 5449 5443 5438 5432 5427 5421 5415 5410 5404 5397 5390 5383 5375 5367 5360 5353 5347 5341 5336 5332 5329 5326 5324 5321 5318 5315 5312 5310 5308 5306 5305 5304 5302 5300 5299 5298 5296 5295 5294 5292 5290 5289 5289 5289 5289 5289 5290 5291 5292 5294 5296 5298 5300 5302 5304 5306 5307 5310 5312 5315
5495 5490 5485 5480 5475 5469 5464 5459 5453 5448 5442 5437 5431 5426 5421 5415 5409 5403 5397 5390 5382 5375 5367 5360 5353 5347 5342 5337 5333 5330 5328 5326 5323 5320 5317 5314 5312 5310 5309 5307 5305 5304 5303 5301 5300 5298 5297 5295 5294 5293 5291 5290 5290 5290 5290 5291 5292 5294 5295 5297 5298 5300 5302 5303 5305 5307 5309 5311 5314
5495 5489 5484 5479 5474 5469 5463 5458 5453 5447 5442 5436 5431 5425 5420 5415 5409 5403 5396 5390 5383 5375 5368 5360 5354 5348 5342 5338 5335 5332 5330 5327 5325 5322 5319 5316 5314 5312 5310 5309 5307 5306 5305 5303 5302 5300 5299 5297 5296 5295 5294 5293 5292 5292 5292 5293 5294 5295 5296 5298 5299 5300 5302 5304 5305 5307 5309 5311 5312
5494 5489 5483 5478 5473 5468 5463 5458 5452 5447 5442 5436 5431 5425 5420 5415 5409 5403 5396 5390 5383 5376 5368 5361 5355 5349 5344 5339 5336 5334 5331 5329 5326 5324 5321 5319 5316 5314 5312 5310 5309 5308 5307 5305 5304 5302 5301 5300 5298 5297 5296 5295 5295 5294 5294 5295 5295 5297 5298 5299 5300 5302 5303 5305 5306 5307 5309 5310 5311
5493 5488 5483 5478 5473 5467 5462 5457 5452 5447 5441 5436 5430 5425 5420 5415 5409 5403 5397 5390 5384 5377 5369 5362 5356 5350 5345 5341 5338 5335 5332 5330 5327 5325 5323 5321 5319 5316 5314 5312 5311 5310 5309 5309 5306 5304 5303 5302 5301 5300 5299 5298 5297 5297 5297 5297 5298 5299 5300 5300 5302 5303 5304 5305 5306 5307 5309 5310 5310
5493 5488 5482 5477 5472 5467 5462 5457 5452 5446 5441 5436 5431 5425 5420 5415 5409 5403 5398 5391 5385 5378 5370 5364 5357 5351 5346 5342 5339 5336 5333 5331 5328 5326 5324 5322 5320 5319 5316 5315 5313 5311 5311 5311 5309 5306 5305 5304 5303 5302 5301 5300 5300 5300 5300 5300 5300 5300 5301 5302 5302 5303 5304 5305 5306 5307 5308 5309 5309
5492 5487 5482 5477 5472 5466 5461 5456 5451 5446 5441 5436 5431 5425 5420 5415 5410 5404 5398 5392 5386 5379 5372 5365 5359 5353 5348 5344 5340 5337 5334 5331 5329 5327 5325 5323 5322 5320 5319 5317 5315 5314 5312 5312 5311 5310 5307 5306 5305 5304 5303 5303 5302 5302 5302 5302 5302 5302 5302 5303 5304 5304 5305 5305 5306 5307 5307 5308 5309
5492 5487 5482 5476 5471 5466 5461 5456 5451 5446 5441 5436 5431 5426 5421 5415 5410 5405 5399 5393 5387 5380 5374 5367 5361 5355 5350 5345 5341 5338 5335 5332 5330 5328 5326 5324 5323 5321 5320 5319 5317 5315 5314 5312 5313 5312 5310 5308 5307 5306 5305 5304 5304 5304 5304 5304 5304 5304 5304 5305 5305 5305 5306 5306 5307 5307 5308 5308 5308
5491 5486 5481 5476 5471 5466 5461 5456 5451 5446 5441 5437 5432 5427 5421 5416 5411 5405 5400 5394 5388 5382 5376 5369 5363 5357 5351 5347 5343 5339 5336 5333 5331 5329 5327 5325 5324 5322 5321 5320 5319 5317 5315 5313 5313 5313 5312 5310 5309 5308 5307 5306 5305 5305 5305 5305 5305 5305 5306 5306 5306 5306 5307 5307 5308 5308 5308 5308 5308
5491 5486 5481 5476 5471 5466 5461 5456 5451 5447 5442 5437 5432 5427 5422 5417 5412 5406 5401 5395 5390 5384 5377 5371 5365 5359 5354 5349 5344 5340 5337 5334 5332 5330 5328 5326 5324 5323 5322 5321 5320 5318 5316 5315 5314 5313 5313 5312 5311 5310 5309 5308 5307 5306 5306 5307 5307 5307 5307 5307 5308 5308 5308 5308 5309 5308 5308 5308 5308
5490 5486 5481 5476 5471 5466 5461 5456 5452 5447 5442 5437 5432 5428 5423 5418 5413 5407 5402 5396 5391 5385 5380 5373 5367 5362 5356 5351 5346 5342 5338 5335 5333 5330 5328 5326 5325 5324 5323 5322 5320 5319 5317 5315 5315 5314 5313 5313 5312 5311 5310 5310 5309 5308 5308 5307 5307 5308 5308 5308 5309 5309 5309 5309 5309 5308 5308 5308 5308
5490 5486 5481 5476 5471 5467 5462 5457 5452 5447 5442 5438 5433 5428 5423 5419 5413 5408 5403 5398 5393 5387 5381 5375 5370 5365 5359 5353 5348 5344 5340 5336 5334 5331 5329 5327 5325 5324 5323 5322 5321 5320 5318 5316 5315 5315 5314 5313 5313 5312 5312 5311 5310 5310 5309 5308 5308 5308 5308 5308 5309 5309 5309 5309 5309 5308 5308 5308 5308
5491 5486 5481 5477 5472 5467 5462 5457 5452 5447 5443 5438 5434 5429 5424 5419 5414 5409 5404 5400 5394 5389 5383 5378 5373 5367 5361 5355 5350 5346 5342 5338 5335 5332 5330 5328 5326 5324 5323 5322 5321 5320 5320 5318 5316 5315 5315 5314 5314 5313 5312 5312 5311 5311 5310 5310 5309 5308 5308 5308 5308 5309 5309 5309 5308 5308 5308 5308 5308
5491 5486 5482 5477 5472 5468 5463 5458 5453 5448 5444 5439 5434 5430 5425 5420 5415 5410 5406 5401 5396 5390 5385 5380 5375 5369 5363 5358 5353 5348 5343 5340 5336 5333 5330 5328 5326 5325 5324 5322 5321 5321 5321 5320 5317 5316 5315 5314 5314 5314 5313 5313 5312 5311 5311 5310 5309 5309 5309 5308 5308 5308 5308 5308 5308 5308 5308 5308 5308
5492 5487 5482 5478 5473 5468 5463 5458 5454 5449 5444 5440 5435 5430 5425 5421 5416 5412 5407 5402 5397 5392 5387 5382 5376 5371 5365 5360 5355 5350 5345 5341 5338 5335 5331 5329 5327 5325 5324 5323 5322 5322 5323 5321 5318 5316 5315 5315 5314 5314 5314 5313 5312 5312 5311 5310 5310 5309 5309 5309 5308 5308 5308 5308 5308 5308 5307 5307 5307
5492 5488 5483 5478 5474 5469 5464 5459 5454 5450 5445 5440 5435 5431 5426 5422 5417 5413 5409 5404 5399 5394 5389 5383 5378 5373 5368 5363 5357 5352 5348 5343 5339 5336 5333 5330 5328 5326 5324 5323 5322 5322 5324 5323 5319 5316 5315 5315 5314 5313 5313 5313 5313 5312 5311 5311 5310 5310 5310 5310 5309 5309 5308 5308 5308 5307 5307 5307 5307
5493 5489 5484 5479 5474 5470 5465 5460 5455 5450 5446 5441 5437 5432 5427 5423 5419 5415 5410 5405 5400 5395 5390 5385 5380 5375 5370 5365 5360 5355 5350 5345 5341 5338 5334 5331 5329 5327 5325 5323 5322 5322 5323 5324 5319 5316 5315 5315 5314 5313 5313 5313 5312 5312 5311 5311 5310 5310 5310 5310 5310 5310 5309 5309 5308 5308 5308 5307 5307
5494 5489 5485 5480 5475 5470 5465 5461 5456 5452 5447 5442 5438 5433 5429 5424 5420 5415 5411 5407 5402 5398 5393 5388 5383 5378 5372 5367 5362 5357 5352 5348 5344 5340 5336 5333 5330 5328 5325 5324 5322 5321 5322 5324 5319 5316 5315 5315 5314 5313 5312 5312 5311 5311 5311 5311 5310 5310 5310 5309 5309 5309 5309 5309 5309 5308 5308 5308 5308
5494 5490 5485 5480 5476 5471 5466 5462 5457 5453 5448 5444 5439 5435 5430 5425 5421 5417 5412 5408 5404 5399 5395 5390 5385 5380 5375 5370 5365 5360 5355 5350 5346 5342 5338 5334 5331 5329 5326 5325 5323 5321 5321 5322 5320 5317 5315 5314 5314 5313 5312 5311 5311 5310 5310 5310 5310 5310 5309 5309 5308 5308 5308 5308 5308 5308 5307 5307 5307
5495 5490 5486 5481 5477 5472 5467 5463 5458 5454 5450 5445 5440 5436 5431 5427 5423 5419 5414 5410 5405 5401 5396 5391 5386 5382 5377 5372 5367 5362 5358 5353 5349 5344 5340 5336 5333 5330 5328 5325 5324 5322 5321 5320 5320 5317 5315 5314 5313 5313 5312 5311 5310 5310 5309 5310 5309 5309 5309 5308 5308 5307 5307 5307 5306 5306 5306 5306 5306
5495 5491 5486 5482 5477 5473 5468 5464 5459 5455 5451 5446 5442 5437 5433 5429 5424 5420 5416 5412 5407 5403 5398 5393 5389 5384 5380 5375 5370 5366 5361 5356 5352 5347 5343 5339 5335 5332 5329 5327 5325 5323 5321 5320 5319 5318 5316 5313 5313 5312 5312 5311 5310 5309 5309 5308 5308 5308 5308 5308 5307 5307 5306 5306 5306 5305 5305 5305 5305
5496 5491 5487 5483 5478 5474 5469 5465 5460 5456 5452 5448 5443 5439 5435 5430 5426 5422 5417 5413 5409 5405 5400 5396 5391 5387 5383 5378 5374 5369 5364 5360 5355 5350 5345 5341 5337 5334 5331 5328 5326 5324 5322 5320 5319 5319 5317 5314 5313 5312 5311 5310 5310 5309 5308 5308 5307 5307 5307 5307 5306 5306 5306 5305 5305 5305 5305 5304 5304
5496 5492 5488 5483 5479 5475 5470 5466 5461 5457 5453 5449 5445 5440 5436 5431 5427 5423 5419 5415 5411 5407 5402 5398 5394 5390 5385 5381 5376 5372 5367 5362 5357 5353 5348 5344 5340 5336 5333 5330 5327 5325 5323 5321 5320 5319 5317 5315 5313 5312 5311 5310 5310 5309 5309 5308 5307 5307 5306 5306 5305 5305 5305 5305 5304 5304 5304 5303 5303
5497 5492 5488 5484 5480 5475 5471 5467 5463 5459 5455 5450 5446 5441 5437 5432 5428 5424 5420 5416 5412 5408 5404 5400 5396 5391 5387 5383 5378 5374 5370 5365 5360 5356 5351 5347 5343 5339 5335 5332 5329 5326 5324 5322 5320 5318 5317 5316 5314 5313 5312 5311 5310 5309 5308 5308 5307 5306 5306 5305 5305 5304 5304 5304 5303 5303 5302 5302 5302
5497 5493 5489 5485 5480 5476 5472 5468 5464 5460 5456 5451 5447 5442 5438 5434 5430 5425 5421 5417 5413 5409 5405 5401 5397 5393 5389 5385 5380 5376 5372 5368 5364 5359 5355 5350 5346 5342 5338 5334 5331 5328 5326 5324 5321 5320 5318 5317 5315 5314 5312 5311 5310 5309 5308 5308 5307 5306 5305 5305 5304 5304 5303 5303 5302 5302 5301 5301 5300
5497 5493 5489 5485 5481 5477 5473 5469 5465 5461 5457 5453 5448 5444 5440 5435 5431 5426 5422 5418 5414 5410 5406 5402 5399 5395 5390 5386 5383 5379 5375 5371 5366 5362 5358 5353 5349 5345 5341 5337 5334 5330 5328 5325 5323 5321 5319 5318 5316 5315 5313 5311 5310 5309 5309 5308 5307 5306 5305 5305 5304 5303 5303 5302 5302 5301 5300 5300 5299